Change the Weather History Date:

Monday, May 20, 2013

  Actual Average Record
Temperature  
Mean Temperature 71 °F 59 °F  
Max Temperature 84 °F 69 °F 87 °F (2012)
Min Temperature 57 °F 50 °F 30 °F (1972)
Degree Days  
Heating Degree Days 0 7  
Month to date heating degree days 97 185  
Since 1 July heating degree days 2990 3960  
Cooling Degree Days 6 1  
Month to date cooling degree days 68 18  
Year to date cooling degree days 118 26  
Growing Degree Days 20 (Base 50)    
Moisture  
Dew Point 27 °F    
Average Humidity 34    
Maximum Humidity 61    
Minimum Humidity 6    
Precipitation  
Precipitation 0.00 in 0.01 in 0.09 in (2002)
Month to date precipitation 0.28 0.33  
Year to date precipitation 2.81 8.34  
Since 1 July precipitation 4.18 12.19  
Sea Level Pressure  
Sea Level Pressure 29.97 in    
Wind  
Wind Speed 14 mph (NNE)    
Max Wind Speed 30 mph    
Max Gust Speed 37 mph    
Visibility 10 miles    
Events      
T = Trace of Precipitation, MM = Missing Value Source: NWS Daily Summary

Daily Weather History Graph

Daily Weather History Graph

Search for Another Location

Airport or City:

Trip Planner

Search our weather history database for the weather conditions in past years. The results will help you decide how hot, cold, wet, or windy it might be!

Date:

Astronomy

May. 20, 2013 Rise Set
Actual Time 5:48 AM PDT 7:55 PM PDT
Civil Twilight 5:19 AM PDT 8:23 PM PDT
Nautical Twilight 4:45 AM PDT 8:58 PM PDT
Astronomical Twilight 4:08 AM PDT 9:35 PM PDT
Moon 3:18 PM PDT (5/20) 2:33 AM PDT (5/20)
Length of Visible Light 15h 03m
Length of Day
14h 06m
Waxing Gibbous, 76% of the Moon is Illuminated
May 20
Waxing Gibbous
May 24
Full
May 31
Last Quarter
Jun 8
New
Jun 16
First Quarter

Hourly Weather History & Observations

Time (PDT) Temp. Dew Point Humidity Pressure Visibility Wind Dir Wind Speed Gust Speed Precip Events Conditions
12:48 AM 59.0 °F 34.0 °F 39% 29.94 in 10.0 mi North 21.9 mph 33.4 mph N/A   Clear
1:48 AM 57.9 °F 34.0 °F 41% 29.96 in 10.0 mi NNW 17.3 mph 29.9 mph N/A   Clear
2:48 AM 59.0 °F 32.0 °F 36% 29.94 in 10.0 mi North 20.7 mph 26.5 mph N/A   Clear
3:48 AM 57.9 °F 34.0 °F 41% 29.94 in 10.0 mi North 16.1 mph 24.2 mph N/A   Clear
4:48 AM 57.9 °F 34.0 °F 41% 29.94 in 10.0 mi North 4.6 mph - N/A   Clear
5:48 AM 57.9 °F 34.0 °F 41% 29.96 in 10.0 mi NE 11.5 mph - N/A   Clear
6:48 AM 63.0 °F 30.9 °F 30% 29.97 in 10.0 mi ENE 19.6 mph 23.0 mph N/A   Clear
7:48 AM 66.0 °F 30.0 °F 26% 29.99 in 10.0 mi East 19.6 mph 28.8 mph N/A   Clear
9:48 AM 70.0 °F 19.9 °F 15% 30.00 in 10.0 mi ENE 25.3 mph 35.7 mph N/A   Clear
10:48 AM 73.0 °F 19.9 °F 14% 30.01 in 10.0 mi East 23.0 mph 32.2 mph N/A   Clear
11:48 AM 75.0 °F 19.0 °F 12% 30.01 in 10.0 mi ENE 16.1 mph 33.4 mph N/A   Clear
12:48 PM - - N/A% - - North - - N/A   Unknown
1:48 PM 78.8 °F 15.8 °F 9% 30.15 in 10.0 mi East 10.4 mph 19.6 mph N/A   Clear
2:48 PM 81.0 °F 15.1 °F 8% 29.99 in 10.0 mi Variable 6.9 mph 19.6 mph N/A   Clear
3:48 PM 82.9 °F 14.0 °F 8% 29.96 in 10.0 mi East 8.1 mph - N/A   Clear
4:48 PM 82.0 °F 12.9 °F 7% 29.95 in 10.0 mi NE 8.1 mph - N/A   Clear
5:48 PM 82.0 °F 15.1 °F 8% 29.94 in 10.0 mi NNE 5.8 mph - N/A   Clear
6:48 PM 75.9 °F 33.1 °F 21% 29.93 in 10.0 mi North 15.0 mph - N/A   Clear
7:48 PM 70.0 °F 32.0 °F 25% 29.95 in 10.0 mi NNW 6.9 mph - N/A   Clear
8:48 PM 68.0 °F 32.0 °F 26% 29.96 in 10.0 mi NNW 13.8 mph - N/A   Clear
9:48 PM 68.0 °F 30.9 °F 25% 29.96 in 10.0 mi NNW 10.4 mph - N/A   Clear
10:48 PM 66.0 °F 32.0 °F 28% 29.96 in 10.0 mi NNW 11.5 mph - N/A   Clear
11:48 PM 66.0 °F 30.0 °F 26% 29.95 in 10.0 mi NW 17.3 mph - N/A   Clear